Location: USNO
(38.9242°N, 77.0663°W)
Time: 15:00:34
(UTC-04:00)

Tiangong 2 - Pass Details

Date: 09 October 2017
Orbit: 388 x 391 km, 42.8° (Epoch: 23 October)

Event Time Altitude Azimuth Distance (km) Brightness Sun altitude
Exits shadow 06:28:23 13° 254° (WSW) 1,278 3.1 -9.3°
Maximum altitude 06:31:15 79° 342° (NNW) 401 1.1 -8.7°
Drops below altitude 10° 06:34:27 10° 68° (ENE) 1,423 5.2 -8.1°
Sets 06:36:32 0° 70° (ENE) 2,281 6.5 -7.7°
